1501959600.67,4193,27.81,74572.5,9.69,-13.73,-14.01,0,*46
1501959601.91,4194,27.81,74570.8,9.69,-13.73,-13.97,0,*49
1501959603.1,4195,27.81,74574.5,9.67,-13.73,-14.11,0,*4F
1501959604.35,4196,27.88,74578.8,9.69,-13.73,-14.01,0,*43
1501959605.6,4197,27.88,74572.5,9.69,-13.83,-14.15,0,*48
1501959606.84,4198,27.81,74572.0,9.69,-13.73,-14.01,0,*4D
1501959608.06,4199,27.88,74572.5,9.67,-13.83,-14.11,0,*4C
1501959609.27,4200,27.88,74572.3,9.71,-13.79,-14.11,0,*4D
1501959610.48,4201,27.88,74574.5,9.71,-13.79,-14.11,0,*4C
1501959611.67,4202,27.81,74568.3,9.71,-13.69,-14.11,0,*4E
1501959612.88,4203,27.81,74568.5,9.71,-13.83,-14.11,0,*4B
1501959614.12,4204,27.81,74568.8,9.69,-13.87,-14.23,0,*40
1501959615.37,4205,27.81,74566.5,9.69,-13.83,-14.15,0,*40
1501959616.63,4206,27.88,74570.5,9.69,-13.97,-14.23,0,*43
1501959617.87,4207,27.81,74570.0,9.69,-13.87,-14.23,0,*43
1501959619.12,4208,27.81,74568.3,9.69,-13.97,-14.23,0,*4D
1501959620.37,4209,27.81,74570.5,9.69,-13.97,-14.23,0,*4C
1501959621.57,4210,27.81,74570.3,9.67,-14.11,-14.29,0,*49
1501959622.82,4211,27.81,74568.8,9.69,-13.97,-14.29,0,*4F
1501959624.07,4212,27.81,74570.5,9.69,-13.97,-14.23,0,*46
1501959625.32,4213,27.81,74570.5,9.69,-13.97,-14.23,0,*47
1501959626.56,4214,27.88,74572.3,9.69,-13.87,-14.23,0,*41
1501959627.81,4215,27.81,74570.5,9.69,-13.97,-14.23,0,*41
1501959629.06,4216,27.81,74570.0,9.69,-14.01,-14.23,0,*4A
1501959630.31,4217,27.81,74568.5,9.69,-13.97,-14.23,0,*43
1501959631.56,4218,27.88,74574.0,9.69,-13.97,-14.29,0,*46
1501959632.81,4219,27.81,74570.8,9.69,-14.01,-14.29,0,*4F
1501959634.05,4220,27.81,74572.0,9.69,-13.87,-14.23,0,*46
1501959635.29,4221,27.81,74574.0,9.69,-13.87,-14.23,0,*47
1501959636.54,4222,27.81,74574.5,9.69,-13.87,-14.23,0,*44
1501959637.75,4223,27.81,74568.8,9.69,-13.73,-14.11,0,*4F
1501959638.98,4224,27.81,74570.5,9.67,-13.97,-14.23,0,*4D
1501959640.2,4225,27.81,74566.3,9.67,-14.01,-14.37,0,*41
1501959641.45,4226,27.81,74562.0,9.69,-14.15,-14.43,0,*4A
1501959642.67,4227,27.81,74560.3,9.69,-14.15,-14.37,0,*48
1501959643.88,4228,27.81,74560.8,9.67,-14.15,-14.29,0,*46
1501959645.1,4229,27.81,74564.5,9.67,-14.15,-14.43,0,*4B
1501959646.29,4230,27.88,74566.0,9.67,-14.11,-14.29,0,*4B
1501959647.51,4231,27.81,74560.0,9.69,-13.73,-14.11,0,*4C
1501959648.73,4232,27.81,74558.3,9.67,-13.87,-14.15,0,*4E
1501959649.95,4233,27.81,74558.3,9.67,-13.97,-14.29,0,*41
1501959651.2,4234,27.81,74560.0,9.69,-14.11,-14.43,0,*4D
1501959652.42,4235,27.81,74564.0,9.67,-13.97,-14.29,0,*47
1501959653.64,4236,27.81,74566.5,9.67,-13.83,-14.11,0,*4A
1501959654.89,4237,27.81,74562.0,9.69,-13.97,-14.29,0,*4B
1501959656.11,4238,27.81,74564.3,9.67,-13.87,-14.23,0,*41
1501959657.31,4239,27.81,74568.3,9.67,-14.11,-14.29,0,*42
1501959658.52,4240,27.81,74568.8,9.69,-13.73,-14.11,0,*4A
1501959659.77,4241,27.81,74568.8,9.69,-13.83,-14.15,0,*40
1501959660.96,4242,27.81,74570.3,9.67,-13.73,-14.11,0,*46
1501959662.18,4243,27.81,74570.5,9.67,-13.87,-14.15,0,*48
1501959663.42,4244,27.81,74568.0,9.69,-13.87,-14.23,0,*44
1501959664.65,4245,27.81,74566.0,9.67,-14.01,-14.23,0,*42
1501959665.9,4246,27.81,74566.3,9.69,-13.83,-14.15,0,*47
1501959667.15,4247,27.81,74566.3,9.69,-13.83,-14.15,0,*46
1501959668.4,4248,27.81,74566.3,9.69,-13.97,-14.23,0,*49
1501959669.64,4249,27.81,74564.0,9.69,-13.83,-14.11,0,*4C
1501959670.88,4250,27.81,74562.3,9.69,-13.87,-14.15,0,*44
1501959672.11,4251,27.81,74564.3,9.67,-13.97,-14.15,0,*4A
1501959673.36,4252,27.81,74566.5,9.69,-13.97,-14.23,0,*42
1501959674.58,4253,27.81,74564.0,9.69,-14.11,-14.23,0,*4A
1501959675.83,4254,27.81,74568.5,9.69,-14.01,-14.23,0,*4C
1501959677.08,4255,27.81,74566.0,9.69,-14.01,-14.29,0,*47
1501959678.33,4256,27.81,74568.8,9.69,-14.01,-14.29,0,*44
1501959679.55,4257,27.81,74570.3,9.69,-14.11,-14.29,0,*44
1501959680.75,4258,27.81,74570.5,9.67,-14.15,-14.37,0,*4E
1501959681.98,4259,27.81,74574.8,9.69,-14.15,-14.37,0,*41
1501959683.22,4260,27.81,74570.0,9.69,-14.23,-14.43,0,*4D
1501959684.46,4261,27.81,74568.3,9.69,-14.29,-14.43,0,*46
1501959685.7,4262,27.81,74570.0,9.69,-14.29,-14.43,0,*45
1501959686.94,4263,27.81,74570.3,9.69,-14.23,-14.43,0,*4E
1501959688.16,4264,27.81,74570.3,9.67,-14.23,-14.43,0,*47
1501959689.38,4265,27.81,74570.8,9.67,-14.23,-14.43,0,*46
1501959690.58,4266,27.81,74570.0,9.67,-14.15,-14.37,0,*43
1501959691.8,4267,27.81,74568.5,9.67,-14.29,-14.47,0,*4A
1501959693.02,4268,27.81,74568.0,9.67,-14.29,-14.47,0,*45
1501959694.3,4269,27.81,74568.3,9.69,-14.47,-14.75,0,*43
1501959695.54,4270,27.81,74568.5,9.67,-14.43,-14.55,0,*43
1501959696.77,4271,27.81,74572.3,9.67,-14.01,-14.23,0,*45
1501959697.97,4272,27.81,74570.8,9.67,-14.15,-14.29,0,*49
1501959699.17,4273,27.81,74570.3,9.67,-14.11,-14.37,0,*43
1501959700.37,4274,27.81,74570.5,9.67,-14.15,-14.37,0,*40
1501959701.59,4275,27.81,74568.5,9.67,-14.29,-14.47,0,*49
1501959702.83,4276,27.81,74570.0,9.69,-14.43,-14.69,0,*44
1501959704.08,4277,27.81,74570.3,9.67,-14.43,-14.47,0,*47
1501959705.33,4278,27.81,74568.8,9.69,-14.15,-14.43,0,*41
1501959706.56,4279,27.81,74566.8,9.67,-13.97,-14.23,0,*45
1501959707.78,4280,27.81,74568.0,9.67,-13.97,-14.23,0,*43
1501959709.01,4281,27.81,74566.8,9.67,-13.97,-14.23,0,*42
1501959710.25,4282,27.81,74570.0,9.69,-13.83,-14.11,0,*4B
1501959711.48,4283,27.81,74566.8,9.67,-13.97,-14.15,0,*45
1501959712.71,4284,27.81,74560.0,9.67,-13.97,-14.15,0,*42
1501959713.93,4285,27.81,74564.0,9.67,-13.87,-14.15,0,*42
1501959715.15,4286,27.81,74562.0,9.67,-13.83,-14.11,0,*41
1501959716.39,4287,27.81,74566.3,9.69,-13.73,-13.97,0,*48
1501959717.61,4288,27.81,74562.8,9.67,-13.69,-13.97,0,*42
1501959718.85,4289,27.81,74568.5,9.67,-13.61,-13.87,0,*4A
1501959720.09,4290,27.81,74564.3,9.69,-13.55,-13.83,0,*4F
1501959721.32,4291,27.81,74564.0,9.67,-13.83,-14.15,0,*43
1501959722.57,4292,27.81,74560.5,9.69,-13.73,-13.97,0,*4C
1501959723.81,4293,27.81,74560.3,9.69,-13.73,-14.01,0,*45
1501959725.02,4294,27.81,74560.0,9.69,-13.73,-14.11,0,*43
1501959726.24,4295,27.81,74562.3,9.69,-13.73,-14.11,0,*42
1501959727.45,4296,27.81,74556.3,9.69,-13.55,-13.73,0,*46
1501959728.69,4297,27.81,74562.0,9.69,-13.69,-13.83,0,*47
1501959729.93,4298,27.81,74560.0,9.67,-13.61,-13.83,0,*4E
1501959731.17,4299,27.81,74560.0,9.73,-13.37,-13.65,0,*41
1501959732.36,4300,27.81,74560.0,9.71,-13.43,-13.69,0,*4D
1501959733.57,4301,27.81,74556.8,9.71,-13.55,-13.79,0,*4A
1501959734.77,4302,27.81,74558.0,9.71,-13.55,-13.79,0,*49
1501959736.02,4303,27.81,74558.3,9.73,-13.51,-13.79,0,*4E
1501959737.26,4304,27.81,74564.5,9.73,-13.51,-13.79,0,*49
1501959738.48,4305,27.81,74560.0,9.73,-13.65,-13.93,0,*4B
1501959739.74,4306,27.81,74560.8,9.77,-13.61,-13.87,0,*4D
1501959741.0,4307,27.81,74558.5,9.77,-13.61,-13.87,0,*4C
1501959742.24,4308,27.81,74560.3,9.77,-13.51,-13.87,0,*40
1501959743.48,4309,27.81,74558.8,9.77,-13.61,-13.93,0,*47
1501959744.72,4310,27.81,74562.0,9.77,-13.51,-13.87,0,*49
1501959745.98,4311,27.81,74564.8,9.77,-13.61,-13.87,0,*4B
1501959747.21,4312,27.81,74564.5,9.77,-13.65,-13.87,0,*4C
1501959748.45,4313,27.81,74562.3,9.79,-13.61,-13.87,0,*47
1501959749.69,4314,27.81,74566.3,9.77,-13.73,-14.05,0,*40
1501959750.96,4315,27.81,74560.8,9.77,-13.87,-14.05,0,*4A
1501959752.18,4316,27.81,74562.0,9.79,-13.73,-14.01,0,*48
1501959753.43,4317,27.81,74564.0,9.77,-13.73,-14.01,0,*47
1501959754.69,4318,27.81,74562.5,9.77,-13.87,-14.05,0,*47
1501959755.91,4319,27.81,74564.8,9.79,-13.87,-14.11,0,*4D
1501959757.12,4320,27.81,74566.3,9.77,-13.93,-14.15,0,*48
1501959758.33,4321,27.81,74568.3,9.77,-13.93,-14.15,0,*49
1501959759.56,4322,27.81,74564.5,9.79,-13.83,-14.15,0,*45
1501959760.81,4323,27.81,74564.0,9.79,-13.61,-13.97,0,*45
1501959762.03,4324,27.81,74562.5,9.79,-13.69,-13.97,0,*4A
1501959763.27,4325,27.81,74560.8,9.77,-13.65,-13.87,0,*48
1501959764.51,4326,27.81,74556.0,9.79,-13.61,-13.87,0,*41
1501959765.76,4327,27.81,74558.0,9.79,-13.61,-13.97,0,*41
1501959767.01,4328,27.81,74560.5,9.79,-13.83,-14.01,0,*4A
1501959768.24,4329,27.81,74556.0,9.79,-13.97,-14.15,0,*4B
1501959769.46,4330,27.81,74558.0,9.79,-13.87,-14.15,0,*42
1501959770.71,4331,27.81,74564.0,9.81,-13.87,-14.23,0,*41
1501959771.94,4332,27.81,74560.8,9.81,-13.87,-14.11,0,*43
1501959773.16,4333,27.81,74562.8,9.79,-13.87,-14.29,0,*4E
1501959774.39,4334,27.81,74564.8,9.79,-13.97,-14.11,0,*43
1501959775.59,4335,27.81,74564.8,9.79,-14.15,-14.29,0,*44
1501959776.81,4336,27.81,74566.5,9.79,-14.23,-14.43,0,*4E
1501959778.03,4337,27.81,74564.8,9.77,-14.19,-14.37,0,*4B
1501959779.23,4338,27.81,74564.3,9.79,-14.15,-14.33,0,*42
1501959780.43,4339,27.81,74562.3,9.79,-14.23,-14.29,0,*4D
1501959781.67,4340,27.81,74564.5,9.77,-14.33,-14.51,0,*43
1501959782.91,4341,27.81,74564.8,9.77,-14.29,-14.51,0,*49
1501959784.17,4342,27.81,74564.0,9.77,-14.19,-14.47,0,*4E
1501959785.37,4343,27.81,74566.0,9.79,-14.15,-14.33,0,*4E
1501959786.59,4344,27.81,74564.3,9.77,-14.15,-14.37,0,*43
1501959787.84,4345,27.81,74562.5,9.77,-14.01,-14.19,0,*4B
1501959789.06,4346,27.81,74560.8,9.79,-13.83,-14.11,0,*43
1501959790.27,4347,27.81,74566.3,9.79,-13.87,-14.11,0,*46
1501959791.5,4348,27.81,74566.0,9.77,-14.15,-14.37,0,*4F
1501959792.72,4349,27.81,74560.8,9.79,-14.33,-14.47,0,*43
1501959793.92,4350,27.81,74564.0,9.79,-14.15,-14.33,0,*4C
1501959795.15,4351,27.81,74564.0,9.79,-14.01,-14.29,0,*43
1501959796.37,4352,27.81,74570.3,9.77,-14.15,-14.37,0,*44
1501959797.62,4353,27.81,74568.3,9.77,-14.05,-14.33,0,*40
1501959798.86,4354,27.81,74566.3,9.77,-14.01,-14.19,0,*4B
1501959800.11,4355,27.81,74564.5,9.77,-14.01,-14.19,0,*4A
1501959801.32,4356,27.81,74566.5,9.77,-13.93,-14.19,0,*45
1501959802.54,4357,27.81,74568.0,9.79,-13.83,-14.11,0,*43
1501959803.78,4358,27.81,74564.0,9.77,-13.87,-14.15,0,*42
1501959805.0,4359,27.81,74566.3,9.79,-13.87,-14.11,0,*49
1501959806.21,4360,27.81,74566.5,9.79,-13.87,-14.11,0,*43
1501959807.43,4361,27.81,74562.0,9.79,-13.87,-14.11,0,*42
1501959808.64,4362,27.81,74564.3,9.77,-13.93,-14.15,0,*4E
1501959809.89,4363,27.81,74564.8,9.77,-14.01,-14.19,0,*4F
1501959811.11,4364,27.81,74560.8,9.79,-13.97,-14.15,0,*42
1501959812.34,4365,27.81,74562.0,9.79,-13.69,-14.01,0,*47
1501959813.58,4366,27.81,74564.8,9.79,-13.61,-13.87,0,*45
1501959814.8,4367,27.81,74566.3,9.79,-13.73,-14.01,0,*4E
1501959816.02,4368,27.81,74564.8,9.79,-13.87,-14.11,0,*4B
1501959817.24,4369,27.81,74564.0,9.79,-13.83,-14.11,0,*4E
1501959818.46,4370,27.81,74564.3,9.79,-13.87,-14.15,0,*46
1501959819.69,4371,27.81,74566.3,9.79,-13.97,-14.23,0,*43
1501959820.91,4372,27.81,74570.5,9.79,-13.97,-14.23,0,*40
1501959822.14,4373,27.81,74566.3,9.79,-13.83,-14.15,0,*41
1501959823.36,4374,27.81,74566.3,9.79,-13.87,-14.11,0,*46
1501959824.58,4375,27.81,74570.0,9.79,-13.73,-14.01,0,*4D
1501959825.8,4376,27.81,74568.0,9.79,-13.73,-14.01,0,*4E
1501959827.08,4377,27.81,74570.0,9.81,-13.83,-14.01,0,*47
1501959828.33,4378,27.81,74566.0,9.81,-13.97,-14.15,0,*48
1501959829.56,4379,27.81,74566.5,9.79,-13.97,-14.15,0,*4E
1501959830.8,4380,27.81,74562.3,9.81,-13.87,-14.15,0,*4E
1501959832.05,4381,27.81,74560.0,9.81,-13.83,-14.15,0,*4B
1501959833.27,4382,27.81,74560.8,9.81,-13.73,-14.11,0,*43
1501959834.51,4383,27.81,74566.8,9.81,-13.87,-14.15,0,*4D
1501959835.75,4384,27.81,74566.8,9.81,-13.83,-14.11,0,*4A
1501959837.0,4385,27.81,74568.8,9.81,-13.73,-14.01,0,*45
1501959838.24,4386,27.81,74566.3,9.83,-13.79,-14.05,0,*4A
1501959839.44,4387,27.81,74564.3,9.83,-13.93,-14.15,0,*4E
1501959840.69,4388,27.81,74562.0,9.81,-13.97,-14.23,0,*42
1501959841.93,4389,27.81,74568.0,9.81,-13.87,-14.11,0,*43
1501959843.15,4390,27.81,74568.8,9.83,-13.69,-13.97,0,*40
1501959844.4,4391,27.81,74566.5,9.81,-13.69,-14.01,0,*4B
1501959845.64,4392,27.81,74568.0,9.81,-13.87,-14.15,0,*4D
1501959846.89,4393,27.81,74568.3,9.81,-13.87,-14.23,0,*49
1501959848.11,4394,27.81,74566.3,9.83,-13.87,-14.15,0,*49
1501959849.35,4395,27.81,74564.5,9.81,-13.87,-14.15,0,*4A
1501959850.58,4396,27.81,74566.3,9.83,-13.69,-13.97,0,*46
1501959851.82,4397,27.81,74568.8,9.83,-13.79,-13.97,0,*46
1501959853.07,4398,27.81,74566.5,9.81,-13.83,-14.11,0,*47
1501959854.29,4399,27.81,74564.3,9.83,-13.69,-14.05,0,*45
1501959855.54,4400,27.81,74562.5,9.83,-13.83,-14.05,0,*46
1501959856.76,4401,27.81,74568.8,9.83,-13.69,-14.05,0,*43
1501959857.95,4402,27.81,74566.3,9.83,-13.93,-14.11,0,*40
1501959859.19,4403,27.81,74564.5,9.83,-13.79,-14.05,0,*40
1501959860.4,4404,27.81,74570.5,9.83,-13.55,-13.83,0,*40
1501959861.59,4405,27.81,74568.3,9.83,-13.93,-14.11,0,*47
1501959862.82,4406,27.81,74572.8,9.83,-13.97,-14.19,0,*48
1501959864.03,4407,27.81,74568.3,9.83,-13.55,-13.83,0,*43
1501959865.25,4408,27.81,74568.3,9.83,-13.55,-13.83,0,*4C
1501959866.52,4409,27.81,74568.3,9.85,-13.79,-13.97,0,*40
1501959867.79,4410,27.81,74566.3,9.85,-13.79,-14.05,0,*44
1501959869.05,4411,27.81,74564.8,9.85,-13.79,-14.05,0,*45
1501959870.26,4412,27.81,74566.0,9.85,-13.55,-13.93,0,*40
1501959871.49,4413,27.81,74564.3,9.87,-13.73,-14.01,0,*4B
1501959872.73,4414,27.81,74564.3,9.85,-13.83,-14.11,0,*40
1501959873.98,4415,27.81,74564.0,9.85,-13.83,-14.19,0,*49
1501959875.25,4416,27.81,74564.5,9.85,-13.83,-14.05,0,*47
1501959876.49,4417,27.81,74570.3,9.85,-13.65,-13.83,0,*47
1501959877.73,4418,27.81,74566.8,9.85,-13.55,-13.97,0,*4E
1501959878.98,4419,27.81,74570.5,9.85,-13.69,-13.97,0,*40
1501959880.22,4420,27.81,74564.8,9.85,-13.83,-14.11,0,*47
1501959881.47,4421,27.81,74564.8,9.87,-13.79,-14.05,0,*44
1501959882.71,4422,27.81,74564.5,9.85,-13.97,-14.19,0,*48
1501959883.93,4423,27.81,74560.8,9.85,-13.93,-14.23,0,*44
1501959885.18,4424,27.81,74562.8,9.85,-13.97,-14.29,0,*4D
1501959886.43,4425,27.81,74558.3,9.85,-14.05,-14.29,0,*40
1501959887.62,4426,27.81,74556.8,9.87,-13.93,-14.19,0,*4A
1501959888.83,4427,27.81,74562.5,9.85,-13.93,-14.19,0,*49
1501959890.05,4428,27.81,74562.8,9.87,-13.65,-14.01,0,*44
1501959891.27,4429,27.81,74560.0,9.87,-13.87,-14.15,0,*4C
1501959892.47,4430,27.81,74564.3,9.87,-14.11,-14.29,0,*43
1501959893.7,4431,27.81,74566.8,9.87,-14.05,-14.33,0,*4C
1501959894.92,4432,27.81,74568.0,9.87,-14.05,-14.23,0,*4E
1501959896.17,4433,27.81,74568.0,9.85,-13.83,-14.15,0,*41
1501959897.4,4434,27.81,74570.8,9.87,-13.73,-14.01,0,*4E
1501959898.61,4435,27.81,74572.0,9.85,-13.55,-13.93,0,*45
1501959899.86,4436,27.81,74572.3,9.87,-13.61,-14.01,0,*4F
1501959901.08,4437,27.81,74570.8,9.87,-13.87,-14.15,0,*43
1501959902.27,4438,27.81,74572.0,9.87,-13.93,-14.19,0,*45
1501959903.46,4439,27.81,74568.0,9.87,-13.93,-14.19,0,*44
1501959904.68,4440,27.81,74564.8,9.87,-13.73,-14.01,0,*4D
1501959905.9,4441,27.81,74566.8,9.87,-13.87,-14.15,0,*42
1501959907.09,4442,27.81,74566.0,9.87,-13.93,-14.33,0,*40
1501959908.32,4443,27.81,74568.8,9.87,-14.05,-14.33,0,*49
1501959909.57,4444,27.81,74564.5,9.85,-14.05,-14.37,0,*48
1501959910.79,4445,27.81,74568.5,9.87,-13.87,-14.23,0,*43
1501959912.01,4446,27.81,74564.3,9.87,-13.87,-14.23,0,*40
1501959913.23,4447,27.81,74568.3,9.87,-14.01,-14.33,0,*49
1501959914.48,4448,27.81,74570.3,9.85,-13.97,-14.19,0,*44
1501959915.7,4449,27.81,74570.3,9.87,-13.79,-14.15,0,*4B
1501959916.92,4450,27.81,74568.3,9.87,-13.79,-14.19,0,*4F
1501959918.14,4451,27.81,74566.0,9.87,-13.79,-14.15,0,*42
1501959919.36,4452,27.81,74570.3,9.87,-13.79,-14.15,0,*41
1501959920.55,4453,27.81,74564.3,9.87,-13.93,-14.19,0,*48
1501959921.77,4454,27.81,74568.3,9.87,-14.01,-14.19,0,*43
1501959922.96,4455,27.81,74566.0,9.87,-13.93,-14.19,0,*4E
1501959924.21,4456,27.81,74564.0,9.87,-13.87,-14.05,0,*45
1501959925.43,4457,27.81,74560.8,9.87,-13.87,-14.15,0,*45
1501959926.62,4458,27.81,74566.0,9.87,-13.93,-14.19,0,*43
1501959927.84,4459,27.81,74564.5,9.87,-13.87,-14.19,0,*47
1501959929.06,4460,27.81,74564.8,9.87,-13.79,-14.15,0,*40
1501959930.27,4461,27.81,74562.0,9.85,-13.93,-14.23,0,*42
1501959931.5,4462,27.81,74562.8,9.87,-14.01,-14.33,0,*4E
1501959932.72,4463,27.81,74562.0,9.87,-14.01,-14.33,0,*4F
1501959933.95,4464,27.81,74564.3,9.87,-14.01,-14.33,0,*48
1501959935.19,4465,27.81,74564.0,9.87,-13.79,-14.01,0,*40
1501959936.41,4466,27.81,74566.0,9.87,-13.79,-14.19,0,*4A
1501959937.63,4467,27.81,74566.3,9.89,-13.73,-14.11,0,*47
1501959938.88,4468,27.81,74568.0,9.89,-13.83,-14.15,0,*43
1501959940.12,4469,27.75,74562.5,9.89,-13.87,-14.19,0,*4A
1501959941.35,4470,27.75,74566.3,9.89,-14.11,-14.29,0,*49
1501959942.6,4471,27.81,74566.5,9.89,-14.01,-14.29,0,*49
1501959943.85,4472,27.81,74562.8,9.89,-13.97,-14.29,0,*42
1501959945.08,4473,27.81,74564.3,9.89,-14.11,-14.29,0,*4A
1501959946.3,4474,27.75,74560.3,9.89,-14.11,-14.33,0,*46
1501959947.55,4475,27.81,74562.3,9.89,-14.15,-14.43,0,*44
1501959948.81,4476,27.81,74566.8,9.89,-14.01,-14.29,0,*4E
1501959950.06,4477,27.81,74564.8,9.89,-14.01,-14.29,0,*4F
1501959951.33,4478,27.81,74570.5,9.89,-14.01,-14.43,0,*4C
1501959952.58,4479,27.81,74568.8,9.89,-13.97,-14.19,0,*4A
1501959953.81,4480,27.81,74570.8,9.89,-14.11,-14.33,0,*4D
1501959955.05,4481,27.81,74568.3,9.89,-14.15,-14.43,0,*4F
1501959956.28,4482,27.75,74570.0,9.89,-14.15,-14.33,0,*4B
1501959957.54,4483,27.81,74572.5,9.89,-14.19,-14.55,0,*46
1501959958.74,4484,27.81,74570.5,9.91,-14.19,-14.33,0,*48
1501959959.98,4485,27.75,74570.0,9.89,-14.19,-14.43,0,*47
1501959961.23,4486,27.81,74572.3,9.89,-14.15,-14.43,0,*48
1501959962.49,4487,27.81,74570.0,9.89,-14.15,-14.47,0,*4D
1501959963.74,4488,27.81,74572.0,9.89,-14.29,-14.55,0,*4E
1501959964.99,4489,27.75,74568.3,9.89,-14.19,-14.47,0,*4F
1501959966.19,4490,27.81,74572.5,9.87,-14.37,-14.65,0,*45
1501959967.41,4491,27.81,74572.3,9.87,-14.33,-14.51,0,*47
1501959968.63,4492,27.81,74572.0,9.87,-14.33,-14.51,0,*44
1501959969.87,4493,27.81,74568.3,9.87,-14.47,-14.65,0,*41
1501959971.06,4494,27.75,74566.0,9.87,-14.33,-14.65,0,*45
1501959972.29,4495,27.75,74566.3,9.87,-14.37,-14.55,0,*43
1501959973.51,4496,27.81,74566.8,9.87,-14.37,-14.75,0,*42
1501959974.75,4497,27.81,74570.8,9.85,-14.43,-14.69,0,*4F
1501959975.99,4498,27.75,74574.0,9.85,-14.11,-14.43,0,*4F
1501959977.19,4499,27.75,74572.0,9.87,-14.15,-14.37,0,*4B
1501959978.41,4500,27.81,74574.0,9.87,-14.33,-14.51,0,*4E
1501959979.66,4501,27.81,74572.8,9.85,-14.43,-14.65,0,*4D
1501959980.86,4502,27.75,74572.0,9.87,-14.37,-14.61,0,*4B
1501959982.08,4503,27.81,74580.0,9.85,-14.37,-14.65,0,*4C
1501959983.3,4504,27.75,74576.3,9.85,-14.37,-14.65,0,*4B
1501959984.53,4505,27.75,74578.0,9.85,-14.19,-14.29,0,*4E
1501959985.75,4506,27.81,74572.3,9.85,-14.11,-14.29,0,*45
1501959987.0,4507,27.75,74568.3,9.85,-14.05,-14.19,0,*42
1501959988.22,4508,27.75,74562.5,9.87,-13.79,-14.15,0,*4F
1501959989.46,4509,27.75,74560.3,9.87,-13.79,-14.05,0,*4F
1501959990.71,4510,27.81,74562.5,9.87,-13.87,-14.01,0,*42
1501959991.93,4511,27.75,74558.8,9.87,-13.65,-14.01,0,*4F
1501959993.17,4512,27.81,74560.3,9.87,-13.87,-14.05,0,*44
1501959994.39,4513,27.75,74558.5,9.85,-13.93,-14.23,0,*46
1501959995.63,4514,27.81,74562.0,9.89,-13.87,-14.15,0,*4D
1501959996.85,4515,27.81,74558.8,9.87,-13.73,-14.05,0,*48
1501959998.1,4516,27.75,74552.3,9.87,-13.87,-14.05,0,*40
1501959999.32,4517,27.81,74558.8,9.87,-13.79,-14.15,0,*41
1501960000.57,4518,27.81,74556.8,9.89,-13.83,-14.11,0,*41
1501960001.85,4519,27.75,74558.3,9.89,-13.83,-13.97,0,*49
1501960003.09,4520,27.81,74562.3,9.89,-13.83,-14.11,0,*4A
1501960004.31,4521,27.75,74556.8,9.91,-13.69,-14.01,0,*47
1501960005.56,4522,27.81,74562.8,9.89,-13.73,-14.01,0,*46
1501960006.82,4523,27.81,74562.0,9.91,-13.83,-14.01,0,*41
1501960008.04,4524,27.75,74560.3,9.91,-13.83,-14.11,0,*47
1501960009.29,4525,27.75,74562.0,9.89,-13.87,-14.15,0,*4F
1501960010.53,4526,27.75,74560.0,9.93,-13.83,-14.11,0,*47
1501960011.74,4527,27.75,74564.3,9.91,-13.87,-14.11,0,*40
1501960012.97,4528,27.75,74562.3,9.91,-13.87,-14.15,0,*4B
1501960014.19,4529,27.81,74566.8,9.91,-13.87,-14.15,0,*4A
1501960015.4,4530,27.75,74564.0,9.91,-13.87,-14.11,0,*46
1501960016.62,4531,27.75,74568.8,9.91,-13.87,-14.15,0,*43
1501960017.82,4532,27.75,74566.3,9.91,-14.11,-14.29,0,*47
1501960019.02,4533,27.75,74570.0,9.91,-14.11,-14.29,0,*46
1501960020.25,4534,27.75,74564.3,9.91,-14.15,-14.43,0,*49
1501960021.47,4535,27.75,74570.0,9.95,-14.05,-14.33,0,*4A
1501960022.72,4536,27.75,74568.8,9.93,-14.05,-14.37,0,*4B
1501960023.95,4537,27.75,74568.8,9.93,-14.15,-14.37,0,*4B
1501960025.17,4538,27.75,74568.5,9.93,-14.11,-14.37,0,*40
1501960026.4,4539,27.75,74564.8,9.93,-14.15,-14.29,0,*4A
1501960027.65,4540,27.75,74570.0,9.93,-14.05,-14.29,0,*45
1501960028.9,4541,27.81,74570.0,9.93,-14.05,-14.23,0,*4E
1501960030.12,4542,27.75,74570.5,9.93,-14.11,-14.37,0,*4D
1501960031.32,4543,27.75,74568.5,9.95,-14.19,-14.33,0,*46
1501960032.52,4544,27.75,74572.0,9.91,-14.11,-14.33,0,*4D
1501960033.72,4545,27.75,74568.3,9.91,-14.15,-14.33,0,*48
1501960034.95,4546,27.81,74574.8,9.91,-14.29,-14.47,0,*47
1501960036.17,4547,27.75,74570.5,9.91,-14.33,-14.55,0,*4E
1501960037.39,4548,27.75,74570.5,9.89,-14.33,-14.69,0,*47
1501960038.58,4549,27.75,74570.3,9.91,-14.33,-14.69,0,*4F
1501960039.77,4550,27.75,74570.8,9.91,-14.33,-14.69,0,*47
1501960040.99,4551,27.75,74568.3,9.91,-14.29,-14.55,0,*42
1501960042.24,4552,27.75,74572.8,9.89,-14.19,-14.43,0,*4C
1501960043.48,4553,27.75,74574.3,9.89,-14.15,-14.43,0,*41
1501960044.71,4554,27.75,74574.5,9.91,-14.15,-14.43,0,*4F
1501960045.93,4555,27.75,74570.5,9.91,-14.19,-14.43,0,*42
1501960047.15,4556,27.75,74570.8,9.91,-14.01,-14.29,0,*44
1501960048.41,4557,27.75,74568.0,9.89,-14.01,-14.33,0,*47
1501960049.63,4558,27.75,74566.8,9.91,-14.01,-14.29,0,*4A
1501960050.86,4559,27.75,74566.3,9.91,-13.97,-14.15,0,*4C
1501960052.07,4560,27.75,74564.0,9.93,-13.93,-14.11,0,*44
1501960053.32,4561,27.75,74562.5,9.93,-13.97,-14.23,0,*40
1501960054.57,4562,27.75,74564.0,9.93,-14.05,-14.29,0,*45
1501960055.82,4563,27.75,74560.0,9.93,-13.97,-14.29,0,*48
1501960057.07,4564,27.75,74560.8,9.93,-13.97,-14.23,0,*45
1501960058.32,4565,27.75,74560.5,9.93,-14.05,-14.23,0,*48
1501960059.57,4566,27.75,74566.5,9.93,-14.05,-14.29,0,*41
1501960060.8,4567,27.75,74568.5,9.95,-14.05,-14.33,0,*4D
1501960062.05,4568,27.75,74564.5,9.93,-14.05,-14.29,0,*4F
1501960063.27,4569,27.75,74568.0,9.95,-14.05,-14.33,0,*43
1501960064.5,4570,27.75,74570.5,9.95,-14.05,-14.33,0,*4B
1501960065.73,4571,27.75,74570.5,9.95,-14.11,-14.47,0,*4C
1501960066.98,4572,27.75,74568.3,9.93,-14.15,-14.43,0,*49
1501960068.23,4573,27.75,74570.3,9.93,-14.15,-14.51,0,*4B
1501960069.48,4574,27.75,74570.5,9.93,-14.11,-14.51,0,*48
1501960070.73,4575,27.75,74564.8,9.93,-14.23,-14.51,0,*48
1501960071.98,4576,27.75,74566.3,9.93,-14.23,-14.51,0,*4B
1501960073.2,4577,27.75,74568.0,9.93,-14.11,-14.29,0,*44
1501960074.43,4578,27.75,74564.0,9.93,-14.15,-14.37,0,*40
1501960075.68,4579,27.75,74566.3,9.93,-14.23,-14.51,0,*44
1501960076.92,4580,27.75,74566.3,9.93,-14.15,-14.43,0,*44
1501960078.17,4581,27.75,74564.8,9.93,-14.15,-14.43,0,*45
1501960079.37,4582,27.75,74566.3,9.95,-14.11,-14.37,0,*47
1501960080.6,4583,27.75,74568.0,9.95,-14.01,-14.33,0,*43
1501960081.85,4584,27.75,74568.3,9.93,-13.97,-14.23,0,*4B
1501960083.1,4585,27.75,74566.8,9.93,-14.05,-14.29,0,*4C
1501960084.32,4586,27.75,74568.0,9.93,-14.11,-14.37,0,*45
1501960085.52,4587,27.81,74570.5,9.95,-14.11,-14.33,0,*46
1501960086.78,4588,27.75,74566.5,9.95,-14.05,-14.47,0,*4F
1501960088.03,4589,27.75,74562.0,9.93,-14.05,-14.37,0,*4F
1501960089.28,4590,27.75,74562.8,9.93,-13.97,-14.29,0,*44
1501960090.53,4591,27.75,74562.8,9.93,-14.05,-14.37,0,*46
1501960091.78,4592,27.75,74560.3,9.93,-14.05,-14.29,0,*4A
1501960093.02,4593,27.75,74560.8,9.93,-14.11,-14.51,0,*41
1501960094.22,4594,27.75,74564.3,9.95,-13.93,-14.33,0,*49
1501960095.47,4595,27.75,74564.3,9.93,-13.97,-14.29,0,*41
1501960096.72,4596,27.75,74564.8,9.93,-14.05,-14.37,0,*41
1501960097.94,4597,27.75,74564.8,9.95,-14.01,-14.33,0,*46
1501960099.19,4598,27.75,74566.5,9.93,-14.23,-14.51,0,*4B
1501960100.42,4599,27.75,74566.8,9.95,-14.19,-14.51,0,*45
1501960101.67,4600,27.75,74564.0,9.93,-14.29,-14.55,0,*47
1501960102.88,4601,27.75,74566.3,9.93,-14.37,-14.69,0,*46
1501960104.11,4602,27.75,74566.8,9.95,-14.11,-14.51,0,*4C
1501960105.33,4603,27.75,74560.5,9.93,-14.29,-14.69,0,*4B
1501960106.55,4604,27.75,74564.0,9.93,-14.23,-14.65,0,*4A
1501960107.77,4605,27.75,74560.8,9.93,-14.29,-14.65,0,*41
1501960109.02,4606,27.75,74558.8,9.93,-14.23,-14.55,0,*4B